Location: Newark
(50.2306°N, 14.0814°E)
Time: 02:28:48
(UTC+00:00)

N. Korean satellite - Pass Details

Date: 07 December 2019
Orbit: 454 x 507 km, 97.2° (Epoch: 23 January)

Event Time Altitude Azimuth Distance (km) Brightness Sun altitude
Rises 16:54:53 0° 200° (SSW) 2,603 10.8 -17.2°
Reaches altitude 10° 16:57:22 10° 217° (SW) 1,724 10.1 -17.5°
Maximum altitude 17:00:13 21° 268° (W) 1,196 9.5 -18.0°
Drops below altitude 10° 17:03:05 10° 318° (NW) 1,728 9.7 -18.4°
Sets 17:05:34 0° 335° (NNW) 2,613 10.4 -18.8°
